Tracking 30260 objects as of 14-Feb-2025
HD Live streaming from Space Station
objects crossing your sky now

CZ-4 DEB

Track CZ-4 DEB now!
10-day predictions


NORAD ID: 37623
Int'l Code: 1990-081DK
Perigee: 820.3 km
Apogee: 853.2 km
Inclination: 98.7 °
Period: 101.5 minutes
Semi major axis: 7207 km
RCS: 0.0158 m2 (small)
Launch date: September 3, 1990
Source: People's Republic of China (PRC)
Launch site: Taiyaun Space Center, China (TSC)

Note: This is SATELLITE DEBRIS
Your satellite tracking list
Your tracking list is empty




NASA's NSSDC Master Catalog

Two Line Element Set (TLE):
1 37623U 90081DK  25041.18010558  .00001302  00000-0  64620-3 0  9996
2 37623  98.6931  31.5633 0022819 115.9145 244.4386 14.18730672597436
Source of the keplerian elements: AFSPC